When you browse on this site, cookies collect data to enhance your experience and personalize the content and advertising you see.
Visit our Privacy Policy to learn more. By continuing to use the site, you agree to this use of cookies and data.

Hourly Weather Cenon

Today, 4 July, Saturday

Time Temperature Precipitation Wind Pressure Humidity
00:00 +14°C° 0 mm 1 mps 765 mmHg 86%
01:00 +14°C° 0 mm 1 mps 765 mmHg 87%
02:00 +13°C° 0 mm 1 mps 765 mmHg 87%
03:00 +12°C° 0 mm 0 mps 765 mmHg 88%
04:00 +14°C° 0 mm 1 mps 765 mmHg 86%
05:00 +15°C° 0 mm 1 mps 765 mmHg 83%
06:00 +15°C° 0 mm 1 mps 765 mmHg 81%
07:00 +18°C° 0 mm 1 mps 765 mmHg 73%
08:00 +19°C° 0 mm 2 mps 765 mmHg 64%
09:00 +21°C° 0 mm 2 mps 765 mmHg 56%
10:00 +23°C° 0 mm 2 mps 765 mmHg 53%
11:00 +25°C° 0 mm 2 mps 765 mmHg 50%
12:00 +26°C° 0 mm 3 mps 765 mmHg 47%
13:00 +26°C° 0 mm 3 mps 765 mmHg 47%
14:00 +26°C° 0 mm 3 mps 765 mmHg 48%
15:00 +26°C° 0 mm 4 mps 765 mmHg 49%
16:00 +25°C° 0 mm 3 mps 765 mmHg 53%
17:00 +24°C° 0 mm 3 mps 765 mmHg 57%
18:00 +22°C° 0 mm 3 mps 765 mmHg 62%
19:00 +20°C° 0 mm 2 mps 765 mmHg 67%
20:00 +19°C° 0 mm 2 mps 765 mmHg 72%
21:00 +19°C° 0 mm 1 mps 765 mmHg 77%
22:00 +18°C° 0 mm 1 mps 765 mmHg 79%
23:00 +18°C° 0 mm 1 mps 765 mmHg 81%

Tomorrow, 5 July, Sunday

Time Temperature Precipitation Wind Pressure Humidity
00:00 +18°C° 0 mm 1 mps 765 mmHg 83%
01:00 +16°C° 0 mm 1 mps 765 mmHg 85%
02:00 +16°C° 0 mm 1 mps 765 mmHg 87%
03:00 +16°C° 0 mm 1 mps 764 mmHg 88%
04:00 +18°C° 0 mm 1 mps 764 mmHg 87%
05:00 +18°C° 0 mm 1 mps 764 mmHg 85%
06:00 +19°C° 0 mm 1 mps 764 mmHg 83%
07:00 +21°C° 0 mm 1 mps 764 mmHg 79%
08:00 +22°C° 0 mm 1 mps 764 mmHg 75%
09:00 +24°C° 0 mm 1 mps 764 mmHg 70%
10:00 +25°C° 0 mm 1 mps 764 mmHg 67%
11:00 +26°C° 0 mm 1 mps 764 mmHg 63%
12:00 +27°C° 0 mm 1 mps 764 mmHg 59%
13:00 +28°C° 0 mm 2 mps 763 mmHg 58%
14:00 +28°C° 0 mm 2 mps 763 mmHg 57%
15:00 +29°C° 0 mm 3 mps 763 mmHg 56%
16:00 +28°C° 0 mm 3 mps 762 mmHg 61%
17:00 +26°C° 0 mm 3 mps 762 mmHg 66%
18:00 +25°C° 0 mm 4 mps 762 mmHg 71%
19:00 +24°C° 0 mm 3 mps 762 mmHg 78%
20:00 +21°C° 0 mm 3 mps 763 mmHg 84%
21:00 +19°C° 0 mm 2 mps 763 mmHg 91%
22:00 +19°C° 0 mm 2 mps 763 mmHg 91%
23:00 +18°C° 0 mm 2 mps 763 mmHg 92%

Day after tomorrow, 6 July, Monday

Time Temperature Precipitation Wind Pressure Humidity
00:00 +18°C° 0 mm 2 mps 763 mmHg 92%
01:00 +18°C° 0 mm 2 mps 763 mmHg 89%
02:00 +19°C° 0 mm 2 mps 763 mmHg 86%
03:00 +19°C° 0 mm 2 mps 762 mmHg 83%
04:00 +19°C° 0 mm 2 mps 763 mmHg 84%
05:00 +19°C° 0 mm 2 mps 763 mmHg 84%
06:00 +18°C° 0 mm 3 mps 763 mmHg 85%
07:00 +18°C° 0 mm 3 mps 763 mmHg 81%
08:00 +19°C° 0 mm 3 mps 764 mmHg 77%
09:00 +19°C° 0 mm 3 mps 764 mmHg 73%
10:00 +20°C° 0 mm 3 mps 764 mmHg 65%
11:00 +21°C° 0 mm 3 mps 764 mmHg 57%
12:00 +24°C° 0 mm 3 mps 764 mmHg 48%
13:00 +23°C° 0 mm 4 mps 764 mmHg 47%
14:00 +23°C° 0 mm 4 mps 764 mmHg 46%
15:00 +25°C° 0 mm 4 mps 764 mmHg 45%
16:00 +23°C° 0 mm 4 mps 764 mmHg 50%
17:00 +22°C° 0 mm 4 mps 764 mmHg 55%
18:00 +21°C° 0 mm 4 mps 764 mmHg 60%
19:00 +19°C° 0 mm 4 mps 764 mmHg 66%
20:00 +18°C° 0 mm 3 mps 764 mmHg 72%
21:00 +16°C° 0 mm 2 mps 764 mmHg 78%
22:00 +15°C° 0 mm 2 mps 764 mmHg 78%
23:00 +15°C° 0 mm 2 mps 764 mmHg 78%

7 July, Tuesday

Time Temperature Precipitation Wind Pressure Humidity
00:00 +14°C° 0 mm 2 mps 764 mmHg 78%
01:00 +14°C° 0 mm 2 mps 764 mmHg 81%
02:00 +13°C° 0 mm 2 mps 763 mmHg 83%
03:00 +13°C° 0 mm 2 mps 763 mmHg 85%
04:00 +13°C° 0 mm 2 mps 763 mmHg 84%
05:00 +14°C° 0 mm 2 mps 763 mmHg 83%
06:00 +14°C° 0 mm 2 mps 763 mmHg 82%
07:00 +16°C° 0 mm 2 mps 763 mmHg 73%
08:00 +19°C° 0 mm 2 mps 763 mmHg 63%
09:00 +21°C° 0 mm 2 mps 763 mmHg 54%
10:00 +22°C° 0 mm 3 mps 763 mmHg 51%
11:00 +24°C° 0 mm 3 mps 763 mmHg 47%
12:00 +25°C° 0 mm 3 mps 763 mmHg 43%
13:00 +25°C° 0 mm 4 mps 763 mmHg 43%
14:00 +26°C° 0 mm 4 mps 762 mmHg 43%
15:00 +26°C° 0 mm 4 mps 762 mmHg 42%
16:00 +25°C° 0 mm 4 mps 762 mmHg 46%
17:00 +25°C° 0 mm 4 mps 762 mmHg 50%
18:00 +24°C° 0 mm 3 mps 762 mmHg 54%
19:00 +21°C° 0 mm 3 mps 762 mmHg 59%
20:00 +20°C° 0 mm 3 mps 762 mmHg 65%
21:00 +18°C° 0 mm 3 mps 762 mmHg 71%
22:00 +17°C° 0 mm 3 mps 762 mmHg 73%
23:00 +17°C° 0 mm 3 mps 762 mmHg 76%

8 July, Wednesday

Time Temperature Precipitation Wind Pressure Humidity
00:00 +16°C° 0 mm 3 mps 762 mmHg 79%
01:00 +14°C° 0 mm 3 mps 762 mmHg 80%
02:00 +14°C° 0 mm 3 mps 761 mmHg 82%
03:00 +14°C° 0 mm 2 mps 761 mmHg 84%
04:00 +15°C° 0 mm 2 mps 761 mmHg 82%
05:00 +14°C° 0 mm 3 mps 761 mmHg 80%
06:00 +16°C° 0 mm 3 mps 761 mmHg 78%
07:00 +18°C° 0 mm 3 mps 761 mmHg 71%
08:00 +20°C° 0 mm 3 mps 761 mmHg 63%
09:00 +22°C° 0 mm 3 mps 761 mmHg 55%
10:00 +25°C° 0 mm 3 mps 761 mmHg 50%
11:00 +26°C° 0 mm 3 mps 761 mmHg 46%
12:00 +28°C° 0 mm 3 mps 761 mmHg 41%
13:00 +28°C° 0 mm 3 mps 760 mmHg 40%
14:00 +29°C° 0 mm 3 mps 760 mmHg 39%
15:00 +30°C° 0 mm 3 mps 760 mmHg 38%
16:00 +29°C° 0 mm 3 mps 760 mmHg 43%
17:00 +28°C° 0 mm 3 mps 759 mmHg 48%
18:00 +27°C° 0 mm 3 mps 759 mmHg 53%
19:00 +25°C° 0 mm 3 mps 760 mmHg 58%
20:00 +22°C° 0 mm 3 mps 760 mmHg 64%
21:00 +20°C° 0 mm 3 mps 760 mmHg 70%
22:00 +19°C° 0 mm 3 mps 760 mmHg 71%
23:00 +18°C° 0 mm 2 mps 760 mmHg 72%

9 July, Thursday

Time Temperature Precipitation Wind Pressure Humidity
00:00 +18°C° 0 mm 2 mps 760 mmHg 74%
01:00 +17°C° 0 mm 2 mps 761 mmHg 75%
02:00 +16°C° 0 mm 2 mps 761 mmHg 77%
03:00 +16°C° 0 mm 1 mps 761 mmHg 79%
04:00 +16°C° 0 mm 2 mps 761 mmHg 77%
05:00 +17°C° 0 mm 2 mps 761 mmHg 75%
06:00 +17°C° 0 mm 3 mps 762 mmHg 74%
07:00 +19°C° 0 mm 3 mps 762 mmHg 68%
08:00 +21°C° 0 mm 2 mps 762 mmHg 62%
09:00 +24°C° 0 mm 2 mps 762 mmHg 56%
10:00 +26°C° 0 mm 3 mps 762 mmHg 52%
11:00 +28°C° 0 mm 3 mps 762 mmHg 48%
12:00 +29°C° 0 mm 3 mps 762 mmHg 44%
13:00 +30°C° 0 mm 3 mps 762 mmHg 44%
14:00 +30°C° 0 mm 4 mps 762 mmHg 44%
15:00 +30°C° 0 mm 4 mps 761 mmHg 44%
16:00 +29°C° 0 mm 4 mps 761 mmHg 48%
17:00 +29°C° 0 mm 4 mps 761 mmHg 52%
18:00 +28°C° 0 mm 4 mps 761 mmHg 56%
19:00 +26°C° 0 mm 3 mps 762 mmHg 63%
20:00 +24°C° 0 mm 3 mps 762 mmHg 71%
21:00 +20°C° 0 mm 3 mps 762 mmHg 78%
22:00 +20°C° 0 mm 3 mps 762 mmHg 81%
23:00 +19°C° 0 mm 2 mps 762 mmHg 84%
Show more